N553V KRDU-KRYY

Flight info

Callsign N553V
Flight time 1h 0m
Altitude 36000
Route SHPRD4 SHPRD MILBY DEHAN3
Aircraft LJ35/M-SGHRWXY/SB1

Departure

Time 2026-05-07 00:06
Airport Raleigh-Durham International Airport (KRDU)

Arrival

Time 2026-05-07 01:07
Airport Cobb County International Airport-McCollum Field (KRYY)
Time Latitude Longitude Altitude Speed Heading
2026-05-06 23:52 35.87970 -78.78363 411 ft 0 kts 45°
2026-05-07 00:01 35.87968 -78.78342 411 ft 5 kts 139°
2026-05-07 00:01 35.87956 -78.78296 411 ft 9 kts 74°
2026-05-07 00:01 35.87974 -78.78216 411 ft 11 kts 117°
2026-05-07 00:01 35.88002 -78.78129 410 ft 13 kts 50°
2026-05-07 00:02 35.87991 -78.78061 410 ft 0 kts 135°
2026-05-07 00:04 35.87986 -78.78054 413 ft 5 kts 134°
2026-05-07 00:05 35.87936 -78.77992 414 ft 9 kts 139°
2026-05-07 00:05 35.87888 -78.77984 418 ft 6 kts 224°
2026-05-07 00:05 35.87887 -78.77985 418 ft 0 kts 224°
2026-05-07 00:06 35.87876 -78.77998 414 ft 12 kts 224°
2026-05-07 00:06 35.87633 -78.78297 418 ft 102 kts 225°
2026-05-07 00:06 35.86892 -78.79205 625 ft 190 kts 225°
2026-05-07 00:06 35.85940 -78.80376 1553 ft 181 kts 226°
2026-05-07 00:07 35.85077 -78.81405 2254 ft 178 kts 225°
2026-05-07 00:07 35.84117 -78.82491 2718 ft 192 kts 225°
2026-05-07 00:07 35.83065 -78.83678 3279 ft 218 kts 225°
2026-05-07 00:07 35.81951 -78.84939 3791 ft 217 kts 225°
2026-05-07 00:08 35.80834 -78.86175 4233 ft 216 kts 225°
2026-05-07 00:08 35.79704 -78.87393 4659 ft 215 kts 225°
2026-05-07 00:08 35.78647 -78.88680 5073 ft 212 kts 237°
2026-05-07 00:08 35.77883 -78.90218 5467 ft 211 kts 248°
2026-05-07 00:09 35.77727 -78.92030 5862 ft 224 kts 279°
2026-05-07 00:09 35.78241 -78.93957 6325 ft 253 kts 287°
2026-05-07 00:09 35.78745 -78.96038 6810 ft 258 kts 281°
2026-05-07 00:09 35.79063 -78.98201 7346 ft 248 kts 276°
2026-05-07 00:10 35.79310 -79.00260 7912 ft 238 kts 277°
2026-05-07 00:10 35.79589 -79.02244 8422 ft 232 kts 278°
2026-05-07 00:10 35.79875 -79.04188 8907 ft 233 kts 277°
2026-05-07 00:10 35.80161 -79.06188 9423 ft 241 kts 277°
2026-05-07 00:11 35.80453 -79.08241 9966 ft 246 kts 277°
2026-05-07 00:11 35.80753 -79.10343 10528 ft 254 kts 277°
2026-05-07 00:11 35.81064 -79.12533 11234 ft 271 kts 278°
2026-05-07 00:11 35.81389 -79.14804 12343 ft 270 kts 278°
2026-05-07 00:12 35.81716 -79.17112 13321 ft 276 kts 278°
2026-05-07 00:12 35.82049 -79.19458 14203 ft 280 kts 278°
2026-05-07 00:12 35.82384 -79.21822 15161 ft 280 kts 278°
2026-05-07 00:12 35.82721 -79.24198 16039 ft 283 kts 278°
2026-05-07 00:13 35.83058 -79.26592 16938 ft 284 kts 279°
2026-05-07 00:13 35.83395 -79.28998 17835 ft 286 kts 278°
2026-05-07 00:13 35.83443 -79.31448 18637 ft 288 kts 266°
2026-05-07 00:13 35.83240 -79.33924 19365 ft 291 kts 266°
2026-05-07 00:14 35.83057 -79.36419 20101 ft 294 kts 266°
2026-05-07 00:14 35.82872 -79.38943 20829 ft 297 kts 266°
2026-05-07 00:14 35.82678 -79.41489 21551 ft 300 kts 266°
2026-05-07 00:14 35.82481 -79.44064 22254 ft 304 kts 265°
2026-05-07 00:15 35.82283 -79.46670 22944 ft 308 kts 265°
2026-05-07 00:15 35.82074 -79.49425 22978 ft 330 kts 265°
2026-05-07 00:15 35.81853 -79.52322 22983 ft 349 kts 265°
2026-05-07 00:15 35.81475 -79.55300 22983 ft 364 kts 260°
2026-05-07 00:16 35.80926 -79.58425 23221 ft 369 kts 259°
2026-05-07 00:16 35.80395 -79.61490 23907 ft 361 kts 260°
2026-05-07 00:16 35.79898 -79.64454 24550 ft 355 kts 260°
2026-05-07 00:16 35.79394 -79.67451 25185 ft 351 kts 260°
2026-05-07 00:17 35.78901 -79.70334 25807 ft 347 kts 260°
2026-05-07 00:17 35.78404 -79.73231 26449 ft 344 kts 260°
2026-05-07 00:17 35.77904 -79.76156 26688 ft 353 kts 260°
2026-05-07 00:17 35.77394 -79.79148 26917 ft 360 kts 259°
2026-05-07 00:18 35.76869 -79.82207 26980 ft 370 kts 259°
2026-05-07 00:18 35.76329 -79.85347 26990 ft 379 kts 259°
2026-05-07 00:18 35.75778 -79.88542 26997 ft 385 kts 259°
2026-05-07 00:18 35.75219 -79.91784 27000 ft 389 kts 259°
2026-05-07 00:19 35.74653 -79.95061 26998 ft 393 kts 259°
2026-05-07 00:19 35.74084 -79.98346 27244 ft 389 kts 259°
2026-05-07 00:19 35.73526 -80.01556 27887 ft 378 kts 259°
2026-05-07 00:19 35.72985 -80.04679 28546 ft 368 kts 259°
2026-05-07 00:20 35.72458 -80.07708 29355 ft 357 kts 259°
2026-05-07 00:20 35.71945 -80.10659 30109 ft 349 kts 259°
2026-05-07 00:20 35.71440 -80.13552 30754 ft 342 kts 260°
2026-05-07 00:20 35.70945 -80.16384 31403 ft 336 kts 260°
2026-05-07 00:21 35.70459 -80.19164 32053 ft 329 kts 260°
2026-05-07 00:21 35.69981 -80.21894 32708 ft 324 kts 260°
2026-05-07 00:21 35.69510 -80.24577 33368 ft 318 kts 260°
2026-05-07 00:21 35.69045 -80.27222 34023 ft 314 kts 261°
2026-05-07 00:22 35.68584 -80.29846 34515 ft 315 kts 261°
2026-05-07 00:22 35.68120 -80.32495 34931 ft 316 kts 261°
2026-05-07 00:22 35.67653 -80.35133 35412 ft 316 kts 261°
2026-05-07 00:22 35.67187 -80.37772 35815 ft 317 kts 261°
2026-05-07 00:23 35.66716 -80.40446 35963 ft 325 kts 261°
2026-05-07 00:23 35.66230 -80.43200 35967 ft 335 kts 261°
2026-05-07 00:23 35.65052 -80.48888 35982 ft 353 kts 253°
2026-05-07 00:24 35.63184 -80.54530 35980 ft 359 kts 253°
2026-05-07 00:24 35.61324 -80.60241 35980 ft 360 kts 253°
2026-05-07 00:25 35.59445 -80.65948 35978 ft 361 kts 253°
2026-05-07 00:25 35.57884 -80.70698 35977 ft 361 kts 253°
2026-05-07 00:26 35.55999 -80.76420 35981 ft 362 kts 253°
2026-05-07 00:26 35.54109 -80.82145 35983 ft 362 kts 253°
2026-05-07 00:27 35.52214 -80.87877 35978 ft 363 kts 253°
2026-05-07 00:27 35.50313 -80.93614 35979 ft 363 kts 253°
2026-05-07 00:28 35.48408 -80.99351 35984 ft 363 kts 253°
2026-05-07 00:28 35.46497 -81.05098 35985 ft 364 kts 253°
2026-05-07 00:29 35.44580 -81.10848 35983 ft 364 kts 253°
2026-05-07 00:30 35.40733 -81.22361 36010 ft 365 kts 252°
2026-05-07 00:30 35.38803 -81.28120 35998 ft 365 kts 252°
2026-05-07 00:31 35.36869 -81.33878 35986 ft 365 kts 252°
2026-05-07 00:31 35.34934 -81.39632 35982 ft 365 kts 252°
2026-05-07 00:32 35.32994 -81.45387 35994 ft 365 kts 252°
2026-05-07 00:32 35.31055 -81.51129 36006 ft 365 kts 252°
2026-05-07 00:33 35.29111 -81.56876 36006 ft 365 kts 252°
2026-05-07 00:33 35.27163 -81.62622 36004 ft 366 kts 252°
2026-05-07 00:34 35.25210 -81.68373 36002 ft 366 kts 252°
2026-05-07 00:34 35.23252 -81.74128 35992 ft 367 kts 252°
2026-05-07 00:35 35.21302 -81.79850 35976 ft 367 kts 252°
2026-05-07 00:35 35.19332 -81.85620 35965 ft 368 kts 252°
2026-05-07 00:36 35.17355 -81.91399 35948 ft 368 kts 252°
2026-05-07 00:36 35.15375 -81.97175 35957 ft 369 kts 252°
2026-05-07 00:37 35.13387 -82.02961 35962 ft 369 kts 252°
2026-05-07 00:37 35.11398 -82.08743 35961 ft 369 kts 252°
2026-05-07 00:38 35.09403 -82.14530 35975 ft 369 kts 251°
2026-05-07 00:38 35.07409 -82.20306 35984 ft 370 kts 251°
2026-05-07 00:39 35.05409 -82.26085 35990 ft 370 kts 251°
2026-05-07 00:39 35.03404 -82.31868 35994 ft 370 kts 251°
2026-05-07 00:40 35.01396 -82.37652 35982 ft 371 kts 251°
2026-05-07 00:40 34.99380 -82.43447 35987 ft 371 kts 251°
2026-05-07 00:41 34.97359 -82.49245 35989 ft 372 kts 251°
2026-05-07 00:41 34.95333 -82.55045 35979 ft 372 kts 251°
2026-05-07 00:42 34.93304 -82.60844 35948 ft 373 kts 251°
2026-05-07 00:42 34.91264 -82.66662 35947 ft 374 kts 251°
2026-05-07 00:43 34.89222 -82.72480 35944 ft 373 kts 251°
2026-05-07 00:43 34.87176 -82.78293 35946 ft 373 kts 251°
2026-05-07 00:44 34.85128 -82.84105 35946 ft 374 kts 251°
2026-05-07 00:44 34.83074 -82.89922 35946 ft 374 kts 251°
2026-05-07 00:45 34.81019 -82.95729 36033 ft 374 kts 251°
2026-05-07 00:45 34.79390 -83.01675 36034 ft 369 kts 263°
2026-05-07 00:46 34.79036 -83.07892 36024 ft 368 kts 268°
2026-05-07 00:46 34.78986 -83.14081 36005 ft 368 kts 269°
2026-05-07 00:47 34.78998 -83.20242 35756 ft 361 kts 269°
2026-05-07 00:47 34.79012 -83.23308 35269 ft 364 kts 269°
2026-05-07 00:47 34.79032 -83.26398 34805 ft 367 kts 269°
2026-05-07 00:48 34.79060 -83.29523 34355 ft 371 kts 269°
2026-05-07 00:48 34.79098 -83.32676 33907 ft 374 kts 269°
2026-05-07 00:48 34.79143 -83.35854 33423 ft 377 kts 269°
2026-05-07 00:48 34.79192 -83.39056 32953 ft 379 kts 270°
2026-05-07 00:49 34.79241 -83.42265 32484 ft 381 kts 270°
2026-05-07 00:49 34.79290 -83.45506 31832 ft 385 kts 270°
2026-05-07 00:49 34.79337 -83.48780 31201 ft 388 kts 270°
2026-05-07 00:49 34.79384 -83.52068 30612 ft 390 kts 270°
2026-05-07 00:50 34.79415 -83.55379 30027 ft 391 kts 268°
2026-05-07 00:50 34.78889 -83.58628 29323 ft 395 kts 251°
2026-05-07 00:50 34.77494 -83.61528 28644 ft 405 kts 235°
2026-05-07 00:50 34.75390 -83.63860 28019 ft 415 kts 223°
2026-05-07 00:51 34.72996 -83.65817 27444 ft 414 kts 219°
2026-05-07 00:51 34.70574 -83.67657 26800 ft 408 kts 219°
2026-05-07 00:51 34.68227 -83.69548 26042 ft 402 kts 223°
2026-05-07 00:51 34.66089 -83.71664 25324 ft 393 kts 228°
2026-05-07 00:52 34.64105 -83.73911 24640 ft 386 kts 230°
2026-05-07 00:52 34.62121 -83.76092 23974 ft 384 kts 227°
2026-05-07 00:52 34.60059 -83.78141 23269 ft 381 kts 225°
2026-05-07 00:52 34.58016 -83.80162 22511 ft 377 kts 226°
2026-05-07 00:53 34.56034 -83.82223 21779 ft 374 kts 227°
2026-05-07 00:53 34.54072 -83.84279 21071 ft 372 kts 227°
2026-05-07 00:53 34.52103 -83.86294 20354 ft 369 kts 226°
2026-05-07 00:53 34.50143 -83.88283 19704 ft 366 kts 226°
2026-05-07 00:54 34.48204 -83.90271 19071 ft 364 kts 226°
2026-05-07 00:54 34.46277 -83.92255 18455 ft 362 kts 226°
2026-05-07 00:54 34.44370 -83.94205 17782 ft 356 kts 225°
2026-05-07 00:54 34.42490 -83.96123 17106 ft 351 kts 225°
2026-05-07 00:55 34.40636 -83.98018 16458 ft 345 kts 225°
2026-05-07 00:55 34.38824 -83.99871 15817 ft 337 kts 225°
2026-05-07 00:55 34.37047 -84.01685 15205 ft 331 kts 224°
2026-05-07 00:55 34.35304 -84.03465 14598 ft 325 kts 224°
2026-05-07 00:56 34.33586 -84.05217 14022 ft 321 kts 224°
2026-05-07 00:56 34.31855 -84.06893 13393 ft 317 kts 218°
2026-05-07 00:56 34.29894 -84.08080 12746 ft 313 kts 207°
2026-05-07 00:56 34.27949 -84.09163 12121 ft 301 kts 215°
2026-05-07 00:57 34.26332 -84.10680 11410 ft 288 kts 227°
2026-05-07 00:57 34.25104 -84.12504 10689 ft 274 kts 238°
2026-05-07 00:57 34.24260 -84.14516 10015 ft 264 kts 248°
2026-05-07 00:57 34.23578 -84.16539 9309 ft 257 kts 247°
2026-05-07 00:58 34.22895 -84.18504 8625 ft 251 kts 247°
2026-05-07 00:58 34.22226 -84.20434 7943 ft 247 kts 247°
2026-05-07 00:58 34.21571 -84.22332 7278 ft 244 kts 247°
2026-05-07 00:58 34.20924 -84.24210 6636 ft 241 kts 246°
2026-05-07 00:59 34.19345 -84.27689 5283 ft 238 kts 221°
2026-05-07 00:59 34.17866 -84.28477 5004 ft 226 kts 197°
2026-05-07 00:59 34.16381 -84.28808 4989 ft 208 kts 195°
2026-05-07 01:00 34.14975 -84.29166 4937 ft 209 kts 197°
2026-05-07 01:00 34.13508 -84.29597 4537 ft 225 kts 198°
2026-05-07 01:00 34.11941 -84.30056 4088 ft 237 kts 197°
2026-05-07 01:00 34.10300 -84.30518 3674 ft 245 kts 196°
2026-05-07 01:01 34.08654 -84.30980 3465 ft 232 kts 196°
2026-05-07 01:01 34.07174 -84.31396 3463 ft 207 kts 197°
2026-05-07 01:01 34.05784 -84.31796 3451 ft 204 kts 197°
2026-05-07 01:01 34.04413 -84.32191 3454 ft 201 kts 198°
2026-05-07 01:02 34.03186 -84.32912 3492 ft 193 kts 219°
2026-05-07 01:02 34.02294 -84.34072 3490 ft 188 kts 236°
2026-05-07 01:02 34.01794 -84.35516 3490 ft 193 kts 254°
2026-05-07 01:02 34.01698 -84.37167 3497 ft 197 kts 266°
2026-05-07 01:03 34.01679 -84.38824 3486 ft 199 kts 265°
2026-05-07 01:03 34.01645 -84.40475 3402 ft 198 kts 265°
2026-05-07 01:03 34.01618 -84.42131 3151 ft 193 kts 264°
2026-05-07 01:03 34.01597 -84.43702 2989 ft 177 kts 264°
2026-05-07 01:04 34.01578 -84.45072 2980 ft 157 kts 263°
2026-05-07 01:04 34.01553 -84.46366 2912 ft 157 kts 263°
2026-05-07 01:04 34.01526 -84.47726 2770 ft 163 kts 263°
2026-05-07 01:04 34.01502 -84.49065 2563 ft 160 kts 264°
2026-05-07 01:05 34.01483 -84.50393 2355 ft 154 kts 264°
2026-05-07 01:05 34.01463 -84.51595 2157 ft 134 kts 263°
2026-05-07 01:05 34.01443 -84.52694 1988 ft 131 kts 263°
2026-05-07 01:05 34.01422 -84.53780 1823 ft 130 kts 264°
2026-05-07 01:06 34.01401 -84.54875 1648 ft 132 kts 266°
2026-05-07 01:06 34.01378 -84.56006 1473 ft 137 kts 267°
2026-05-07 01:06 34.01367 -84.57137 1274 ft 132 kts 265°
2026-05-07 01:06 34.01339 -84.58223 1130 ft 129 kts 268°
2026-05-07 01:07 34.01323 -84.59274 1011 ft 113 kts 268°
2026-05-07 01:07 34.01310 -84.60040 1025 ft 60 kts 270°
2026-05-07 01:07 34.01308 -84.60286 1035 ft 23 kts 270°
2026-05-07 01:07 34.01303 -84.60475 1036 ft 22 kts 268°
2026-05-07 01:08 34.01366 -84.60543 1037 ft 0 kts
2026-05-07 01:08 34.01407 -84.60542 1037 ft 8 kts 359°
2026-05-07 01:09 34.01485 -84.60543 1040 ft 12 kts
2026-05-07 01:09 34.01513 -84.60508 1040 ft 0 kts 66°